星链-1812 (STARLINK-1812 )

导读 | 星芒AI

STARLINK-1812 是 SpaceX 星链计划中的一颗低轨通信卫星,属于第 53 批次发射的星链卫星群。该卫星于 2022 年 12 月发射,运行在约 550 公里的近地轨道,旨在为全球用户提供高速互联网服务。它采用先进的相控阵天线和激光通信技术,具备高带宽和低延迟特性,支持偏远地区网络接入。作为星链系统的重要组成部分,STARLINK-1812 贡献于提升全球互联网覆盖与连接能力。

基本信息
目录编号:
47126
目录名称:
STARLINK-1812
国际标识:
2020-088E
轨道中心:
EARTH
卫星名称:
星链-1812
卫星全名:
星链-1812 (STARLINK-1812 )
卫星状态:
在轨 (已飞行1847 天)
发射日期:
2020-11-25 UTC
国别 :
美国 (US)
星等 :
--
轨道信息
数据来源 国际轨道数据
星历时间: 2025-12-15T15:32:10+0800
1天前
查看轨道信息
半长轴: 6925.42km
偏心率: 0.0001869
轨道倾角: 53.059°
近地点辐角 85.656°
升交点赤经 320.398°
平近点角 274.464°
近地点: 545.99km
远地点: 548.58km
周期: 95.594分钟
每日圈数: 15.063769
详细信息
固有亮度:
5
最大亮度:
2.5
卫星平台:
Starlink V1.0
覆盖范围:
全球
运营商:
太空探索技术公司
运营商所在国:
美国
制造商(研发单位):
太空探索技术公司
制造商所在国:
美国
使用方式:
暂无
卫星简介
星链(Starlink)计划是由太空探索技术公司(SpaceX)提出的一个巨型低轨卫星互联网星座项目,计划在2019年至2024年间在太空搭建由约1.2万颗卫星组成的“星链”网络,其中1584颗将部署在地球上空550千米处的近地轨道,并从2020年开始工作。该卫星仍在工作。
2D轨道图
3D轨道图
轨道高度分析图
轨道倾角分析图
轨道综合分析图
查看轨道综合分析图